BAW309 LFPG-EGLL

Flight info

Callsign BAW309
Flight time 0h 39m
Altitude 24000
Route OPALE DCT KESAX DCT DIMAL DCT ALESO
Aircraft A319/M-SDE3FGHIRWY/LB1

Departure

Time 2026-05-06 18:52
Airport Charles de Gaulle International Airport (LFPG)

Arrival

Time 2026-05-06 19:31
Airport London Heathrow Airport (EGLL)
Time Latitude Longitude Altitude Speed Heading
2026-05-06 18:33 49.00192 2.56663 358 ft 0 kts 12°
2026-05-06 18:42 49.00187 2.56662 361 ft 3 kts 12°
2026-05-06 18:43 49.00166 2.56654 358 ft 3 kts 14°
2026-05-06 18:43 49.00144 2.56645 363 ft 3 kts 19°
2026-05-06 18:43 49.00124 2.56632 362 ft 3 kts 39°
2026-05-06 18:43 49.00113 2.56610 356 ft 1 kts 84°
2026-05-06 18:44 49.00113 2.56609 356 ft 0 kts 85°
2026-05-06 18:45 49.00113 2.56625 358 ft 4 kts 85°
2026-05-06 18:46 49.00117 2.56698 354 ft 10 kts 85°
2026-05-06 18:46 49.00124 2.56834 354 ft 16 kts 85°
2026-05-06 18:46 49.00098 2.56977 358 ft 16 kts 153°
2026-05-06 18:46 48.99971 2.56996 358 ft 19 kts 175°
2026-05-06 18:47 48.99866 2.57052 358 ft 15 kts 121°
2026-05-06 18:47 48.99862 2.57202 356 ft 14 kts 85°
2026-05-06 18:47 48.99869 2.57348 354 ft 14 kts 85°
2026-05-06 18:47 48.99876 2.57489 360 ft 13 kts 86°
2026-05-06 18:48 48.99882 2.57630 354 ft 13 kts 86°
2026-05-06 18:48 48.99892 2.57770 354 ft 13 kts 83°
2026-05-06 18:48 48.99901 2.57928 354 ft 18 kts 85°
2026-05-06 18:48 48.99912 2.58142 354 ft 23 kts 85°
2026-05-06 18:49 48.99926 2.58403 354 ft 27 kts 85°
2026-05-06 18:49 48.99942 2.58702 354 ft 29 kts 84°
2026-05-06 18:49 48.99958 2.58998 354 ft 22 kts 86°
2026-05-06 18:49 48.99970 2.59236 354 ft 24 kts 85°
2026-05-06 18:50 48.99983 2.59490 354 ft 19 kts 84°
2026-05-06 18:50 48.99972 2.59635 361 ft 14 kts 126°
2026-05-06 18:50 48.99872 2.59664 359 ft 16 kts 173°
2026-05-06 18:50 48.99799 2.59558 358 ft 17 kts 263°
2026-05-06 18:51 48.99788 2.59351 352 ft 29 kts 265°
2026-05-06 18:51 48.99756 2.58741 355 ft 86 kts 265°
2026-05-06 18:51 48.99692 2.57543 352 ft 140 kts 265°
2026-05-06 18:51 48.99606 2.55915 692 ft 155 kts 267°
2026-05-06 18:52 48.99507 2.54283 1364 ft 155 kts 269°
2026-05-06 18:52 48.99414 2.52593 1883 ft 169 kts 268°
2026-05-06 18:52 48.99445 2.50701 2221 ft 190 kts 289°
2026-05-06 18:52 49.00264 2.49021 2580 ft 213 kts 327°
2026-05-06 18:53 49.01642 2.47893 3127 ft 238 kts 334°
2026-05-06 18:53 49.03173 2.46724 3923 ft 250 kts 334°
2026-05-06 18:53 49.04732 2.45546 4860 ft 258 kts 334°
2026-05-06 18:53 49.06382 2.44290 5807 ft 264 kts 334°
2026-05-06 18:54 49.08039 2.43021 6734 ft 269 kts 333°
2026-05-06 18:54 49.09722 2.41726 7684 ft 271 kts 333°
2026-05-06 18:54 49.11414 2.40417 8659 ft 274 kts 333°
2026-05-06 18:54 49.13126 2.39090 9611 ft 277 kts 332°
2026-05-06 18:55 49.14845 2.37761 10265 ft 289 kts 333°
2026-05-06 18:55 49.16714 2.36318 10538 ft 313 kts 332°
2026-05-06 18:55 49.18727 2.34765 10802 ft 335 kts 333°
2026-05-06 18:55 49.20834 2.33133 11427 ft 342 kts 333°
2026-05-06 18:56 49.22992 2.31455 12117 ft 347 kts 333°
2026-05-06 18:56 49.25125 2.29792 12811 ft 350 kts 333°
2026-05-06 18:56 49.27321 2.28083 13461 ft 357 kts 333°
2026-05-06 18:56 49.29548 2.26350 14164 ft 359 kts 333°
2026-05-06 18:57 49.31780 2.24610 14820 ft 361 kts 333°
2026-05-06 18:57 49.34030 2.22854 15476 ft 364 kts 333°
2026-05-06 18:57 49.36299 2.21077 16132 ft 367 kts 333°
2026-05-06 18:57 49.38586 2.19281 16764 ft 371 kts 332°
2026-05-06 18:58 49.40897 2.17466 17398 ft 375 kts 332°
2026-05-06 18:58 49.43235 2.15646 18032 ft 379 kts 333°
2026-05-06 18:58 49.45695 2.14136 18633 ft 383 kts 338°
2026-05-06 18:58 49.48202 2.12709 19182 ft 386 kts 339°
2026-05-06 18:59 49.50734 2.11262 19717 ft 390 kts 339°
2026-05-06 18:59 49.53283 2.09798 20301 ft 393 kts 339°
2026-05-06 18:59 49.55849 2.08320 20868 ft 395 kts 339°
2026-05-06 18:59 49.58442 2.06828 21364 ft 399 kts 339°
2026-05-06 19:00 49.61049 2.05326 21820 ft 404 kts 339°
2026-05-06 19:00 49.63685 2.03798 22328 ft 406 kts 339°
2026-05-06 19:00 49.66342 2.02257 22839 ft 409 kts 339°
2026-05-06 19:00 49.69014 2.00705 23291 ft 412 kts 338°
2026-05-06 19:01 49.71715 1.99136 23704 ft 416 kts 339°
2026-05-06 19:01 49.74431 1.97560 23923 ft 418 kts 339°
2026-05-06 19:01 49.77167 1.95968 23967 ft 423 kts 339°
2026-05-06 19:01 49.79931 1.94362 23975 ft 425 kts 339°
2026-05-06 19:02 49.82702 1.92752 23972 ft 426 kts 339°
2026-05-06 19:02 49.85475 1.91137 23976 ft 426 kts 339°
2026-05-06 19:02 49.88234 1.89479 23971 ft 425 kts 335°
2026-05-06 19:02 49.90831 1.87299 23970 ft 425 kts 326°
2026-05-06 19:03 49.93190 1.84551 23977 ft 424 kts 321°
2026-05-06 19:03 49.95501 1.81696 23976 ft 426 kts 321°
2026-05-06 19:03 49.97821 1.78840 23982 ft 425 kts 320°
2026-05-06 19:03 50.00140 1.75988 23976 ft 425 kts 320°
2026-05-06 19:04 50.02456 1.73134 23977 ft 425 kts 320°
2026-05-06 19:04 50.04781 1.70261 23980 ft 425 kts 320°
2026-05-06 19:04 50.07167 1.67570 23981 ft 426 kts 327°
2026-05-06 19:04 50.09800 1.65440 23977 ft 427 kts 334°
2026-05-06 19:05 50.12497 1.63498 23977 ft 427 kts 334°
2026-05-06 19:05 50.15153 1.61579 23976 ft 427 kts 334°
2026-05-06 19:05 50.17879 1.59600 23979 ft 427 kts 334°
2026-05-06 19:05 50.20534 1.57666 23976 ft 427 kts 333°
2026-05-06 19:06 50.23231 1.55703 23968 ft 427 kts 334°
2026-05-06 19:06 50.25931 1.53737 23976 ft 427 kts 333°
2026-05-06 19:06 50.28627 1.51773 23977 ft 427 kts 333°
2026-05-06 19:06 50.31322 1.49805 23979 ft 428 kts 333°
2026-05-06 19:07 50.34017 1.47832 23982 ft 428 kts 333°
2026-05-06 19:07 50.35796 1.46528 23984 ft 428 kts 333°
2026-05-06 19:07 50.39406 1.43880 23985 ft 428 kts 333°
2026-05-06 19:07 50.42112 1.41891 23999 ft 434 kts 333°
2026-05-06 19:08 50.44877 1.39860 24003 ft 442 kts 333°
2026-05-06 19:08 50.47633 1.37675 23996 ft 443 kts 328°
2026-05-06 19:08 50.50132 1.34863 23997 ft 442 kts 318°
2026-05-06 19:08 50.52305 1.31476 23997 ft 441 kts 311°
2026-05-06 19:09 50.54394 1.27919 23996 ft 441 kts 311°
2026-05-06 19:09 50.56476 1.24378 23996 ft 441 kts 312°
2026-05-06 19:09 50.58571 1.20846 23995 ft 441 kts 313°
2026-05-06 19:09 50.60705 1.17392 23993 ft 441 kts 314°
2026-05-06 19:10 50.62855 1.14017 23991 ft 441 kts 314°
2026-05-06 19:10 50.65078 1.10576 23995 ft 441 kts 314°
2026-05-06 19:10 50.67268 1.07185 23996 ft 441 kts 314°
2026-05-06 19:10 50.69412 1.03841 23996 ft 441 kts 314°
2026-05-06 19:11 50.71585 1.00419 23998 ft 441 kts 314°
2026-05-06 19:11 50.73739 0.97000 23997 ft 440 kts 314°
2026-05-06 19:11 50.75896 0.93558 23778 ft 441 kts 314°
2026-05-06 19:11 50.78041 0.90125 23489 ft 437 kts 313°
2026-05-06 19:12 50.80174 0.86708 23213 ft 436 kts 314°
2026-05-06 19:12 50.82297 0.83305 22611 ft 433 kts 314°
2026-05-06 19:12 50.84402 0.79933 21912 ft 428 kts 314°
2026-05-06 19:12 50.86481 0.76603 21232 ft 423 kts 314°
2026-05-06 19:13 50.88540 0.73299 20558 ft 418 kts 314°
2026-05-06 19:13 50.90572 0.70036 19908 ft 414 kts 314°
2026-05-06 19:13 50.92578 0.66809 19284 ft 410 kts 314°
2026-05-06 19:13 50.94567 0.63600 18678 ft 406 kts 314°
2026-05-06 19:14 50.96539 0.60415 18064 ft 402 kts 314°
2026-05-06 19:14 50.98489 0.57268 17452 ft 399 kts 314°
2026-05-06 19:14 51.00428 0.54131 16868 ft 396 kts 314°
2026-05-06 19:14 51.02349 0.51021 16281 ft 393 kts 314°
2026-05-06 19:15 51.04251 0.47936 15712 ft 389 kts 314°
2026-05-06 19:15 51.06139 0.44876 15168 ft 385 kts 314°
2026-05-06 19:15 51.08020 0.41861 14974 ft 384 kts 315°
2026-05-06 19:15 51.09941 0.38885 14234 ft 388 kts 316°
2026-05-06 19:16 51.11885 0.35941 13738 ft 380 kts 316°
2026-05-06 19:16 51.13785 0.33086 13018 ft 371 kts 316°
2026-05-06 19:16 51.15642 0.30285 12103 ft 366 kts 316°
2026-05-06 19:16 51.17456 0.27534 11268 ft 363 kts 316°
2026-05-06 19:17 51.19275 0.24765 10644 ft 361 kts 316°
2026-05-06 19:17 51.21078 0.22005 10033 ft 358 kts 316°
2026-05-06 19:17 51.22869 0.19254 9371 ft 356 kts 316°
2026-05-06 19:17 51.24674 0.16476 8753 ft 352 kts 316°
2026-05-06 19:18 51.26418 0.13788 8181 ft 347 kts 316°
2026-05-06 19:18 51.28128 0.11147 7983 ft 347 kts 316°
2026-05-06 19:18 51.29886 0.08430 7989 ft 347 kts 316°
2026-05-06 19:18 51.31589 0.05787 7990 ft 345 kts 315°
2026-05-06 19:19 51.32635 0.03812 7991 ft 345 kts 303°
2026-05-06 19:19 51.33677 -0.00959 7939 ft 347 kts 278°
2026-05-06 19:19 51.33924 -0.04803 7828 ft 349 kts 276°
2026-05-06 19:19 51.34148 -0.08634 7727 ft 348 kts 276°
2026-05-06 19:20 51.34363 -0.12452 7626 ft 348 kts 276°
2026-05-06 19:20 51.34586 -0.16310 7527 ft 348 kts 276°
2026-05-06 19:20 51.34725 -0.18745 7467 ft 347 kts 277°
2026-05-06 19:20 51.34946 -0.22744 7384 ft 346 kts 276°
2026-05-06 19:21 51.35160 -0.26579 7319 ft 345 kts 276°
2026-05-06 19:21 51.35369 -0.30412 7270 ft 345 kts 276°
2026-05-06 19:21 51.35576 -0.34226 7218 ft 345 kts 276°
2026-05-06 19:21 51.35788 -0.38055 7076 ft 344 kts 276°
2026-05-06 19:22 51.35998 -0.41863 7017 ft 344 kts 276°
2026-05-06 19:22 51.36216 -0.45688 7030 ft 345 kts 276°
2026-05-06 19:22 51.36425 -0.49495 7025 ft 344 kts 276°
2026-05-06 19:22 51.36635 -0.53316 7027 ft 344 kts 276°
2026-05-06 19:23 51.36833 -0.57133 7028 ft 344 kts 276°
2026-05-06 19:23 51.37033 -0.60946 6964 ft 344 kts 276°
2026-05-06 19:23 51.37239 -0.64727 6577 ft 342 kts 276°
2026-05-06 19:23 51.37439 -0.68445 6170 ft 340 kts 276°
2026-05-06 19:24 51.37646 -0.72213 5750 ft 339 kts 276°
2026-05-06 19:24 51.37850 -0.75960 5340 ft 337 kts 276°
2026-05-06 19:24 51.38046 -0.79676 5003 ft 331 kts 276°
2026-05-06 19:24 51.38357 -0.83144 4667 ft 305 kts 289°
2026-05-06 19:25 51.39387 -0.85943 4472 ft 277 kts 316°
2026-05-06 19:25 51.40934 -0.87466 4361 ft 253 kts 345°
2026-05-06 19:25 51.42599 -0.87519 4287 ft 231 kts 17°
2026-05-06 19:25 51.43891 -0.86239 4147 ft 214 kts 47°
2026-05-06 19:26 51.44745 -0.84373 3973 ft 203 kts 54°
2026-05-06 19:26 51.45495 -0.82494 3768 ft 196 kts 56°
2026-05-06 19:26 51.46205 -0.80693 3588 ft 187 kts 56°
2026-05-06 19:26 51.46888 -0.78958 3364 ft 183 kts 56°
2026-05-06 19:27 51.47479 -0.77189 3068 ft 182 kts 70°
2026-05-06 19:27 51.47607 -0.75140 3006 ft 184 kts 87°
2026-05-06 19:27 51.47619 -0.73111 2999 ft 179 kts 86°
2026-05-06 19:27 51.47632 -0.71132 2883 ft 176 kts 86°
2026-05-06 19:28 51.47644 -0.69183 2685 ft 174 kts 86°
2026-05-06 19:28 51.47656 -0.67256 2460 ft 172 kts 86°
2026-05-06 19:28 51.47667 -0.65366 2233 ft 172 kts 86°
2026-05-06 19:28 51.47677 -0.63437 1985 ft 170 kts 86°
2026-05-06 19:29 51.47686 -0.61589 1770 ft 164 kts 86°
2026-05-06 19:29 51.47696 -0.59759 1541 ft 163 kts 87°
2026-05-06 19:29 51.47704 -0.58038 1324 ft 152 kts 86°
2026-05-06 19:29 51.47712 -0.56378 1115 ft 144 kts 86°
2026-05-06 19:30 51.47720 -0.54806 920 ft 140 kts 87°
2026-05-06 19:30 51.47722 -0.53256 714 ft 137 kts 86°
2026-05-06 19:30 51.47730 -0.51730 533 ft 136 kts 85°
2026-05-06 19:30 51.47743 -0.50217 357 ft 135 kts 87°
2026-05-06 19:31 51.47751 -0.48721 153 ft 133 kts 87°
2026-05-06 19:31 51.47762 -0.47292 86 ft 118 kts 89°
2026-05-06 19:31 51.47761 -0.45674 85 ft 41 kts 89°
2026-05-06 19:32 51.47677 -0.45467 86 ft 23 kts 180°
2026-05-06 19:32 51.47595 -0.45547 89 ft 15 kts 272°
2026-05-06 19:32 51.47596 -0.45729 90 ft 17 kts 268°
2026-05-06 19:32 51.47596 -0.45923 88 ft 20 kts 270°
2026-05-06 19:33 51.47596 -0.46165 86 ft 22 kts 269°
2026-05-06 19:33 51.47593 -0.46423 86 ft 22 kts 270°
2026-05-06 19:33 51.47593 -0.46665 86 ft 21 kts 269°
2026-05-06 19:33 51.47583 -0.46893 86 ft 20 kts 268°
2026-05-06 19:34 51.47582 -0.47111 86 ft 19 kts 269°
2026-05-06 19:34 51.47582 -0.47319 89 ft 18 kts 270°
2026-05-06 19:34 51.47581 -0.47520 86 ft 18 kts 269°
2026-05-06 19:34 51.47581 -0.47714 87 ft 17 kts 270°
2026-05-06 19:35 51.47580 -0.47899 86 ft 16 kts 270°
2026-05-06 19:35 51.47579 -0.48073 90 ft 15 kts 271°
2026-05-06 19:35 51.47578 -0.48239 87 ft 14 kts 271°
2026-05-06 19:35 51.47577 -0.48354 87 ft 2 kts 253°
2026-05-06 19:36 51.47572 -0.48359 86 ft 2 kts 217°
2026-05-06 19:36 51.47541 -0.48361 86 ft 8 kts 178°
2026-05-06 19:36 51.47460 -0.48360 86 ft 12 kts 180°
2026-05-06 19:36 51.47378 -0.48359 86 ft 11 kts 179°
2026-05-06 19:37 51.47303 -0.48359 86 ft 10 kts 184°
2026-05-06 19:37 51.47265 -0.48442 86 ft 9 kts 243°
2026-05-06 19:37 51.47213 -0.48474 86 ft 8 kts 181°
2026-05-06 19:37 51.47163 -0.48472 86 ft 7 kts 179°
2026-05-06 19:38 51.47117 -0.48473 86 ft 6 kts 180°
2026-05-06 19:38 51.47088 -0.48503 89 ft 5 kts 253°
2026-05-06 19:38 51.47087 -0.48560 86 ft 5 kts 269°
2026-05-06 19:38 51.47087 -0.48586 86 ft 0 kts 269°